MST,Max TemperatureF,Mean TemperatureF,Min TemperatureF,Max Dew PointF,MeanDew PointF,Min DewpointF,Max Humidity, Mean Humidity, Min Humidity, Max Sea Level PressureIn, Mean Sea Level PressureIn, Min Sea Level PressureIn, Max VisibilityMiles, Mean VisibilityMiles, Min VisibilityMiles, Max Wind SpeedMPH, Mean Wind SpeedMPH, Max Gust SpeedMPH,PrecipitationIn, CloudCover, Events, WindDirDegrees
2013-11-1,64,52,41,32,27,23,58,38,13,30.24,30.17,30.10,10,10,10,8,4,,0.00,0,,26
2013-11-2,64,52,39,29,26,24,60,39,14,30.21,30.05,29.83,10,10,8,6,2,,0.00,0,,295
2013-11-3,69,55,41,29,24,16,55,33,9,29.82,29.76,29.65,10,10,9,13,4,21,0.00,0,,282
2013-11-4,52,46,39,34,20,12,63,35,12,29.92,29.85,29.80,10,10,9,10,3,17,0.00,1,,349
2013-11-5,51,44,36,23,11,4,45,27,8,30.30,30.15,29.93,10,10,7,9,5,16,0.00,1,,283
2013-11-6,54,42,30,17,13,10,46,31,8,30.47,30.40,30.31,10,9,2,6,2,,0.00,0,,267
2013-11-7,57,46,35,21,17,14,42,31,13,30.46,30.32,30.15,10,9,3,6,1,,0.00,0,,326
2013-11-8,64,50,37,21,18,15,41,28,11,30.17,30.08,29.97,10,10,8,6,2,,0.00,0,,241
2013-11-9,64,50,37,20,17,15,40,26,7,30.17,30.11,30.05,10,10,5,7,2,,0.00,0,,233
2013-11-10,64,52,39,24,21,18,45,30,13,30.26,30.19,30.13,10,10,3,5,3,,0.00,0,,286
2013-11-11,64,52,39,26,24,22,50,34,12,30.32,30.27,30.20,10,10,7,6,2,,0.00,0,,300
2013-11-12,64,52,39,26,24,21,49,33,14,30.45,30.36,30.31,10,10,5,6,3,,0.00,0,,261
2013-11-13,63,52,42,28,25,23,47,36,17,30.35,30.20,30.07,10,9,2,6,2,,0.00,0,,274
2013-11-14,63,51,39,29,26,22,60,38,17,30.12,29.97,29.75,10,10,7,6,2,,0.00,0,,323
2013-11-15,61,50,39,33,24,21,55,36,14,29.73,29.61,29.49,10,10,4,14,3,18,0.00,2,,271
2013-11-16,64,50,37,29,26,24,60,40,14,29.77,29.62,29.53,10,10,7,16,4,28,0.00,1,,244
2013-11-17,62,53,44,31,30,28,58,43,22,30.09,29.96,29.77,10,10,7,7,4,,0.00,0,,184
2013-11-18,60,48,37,31,30,29,67,49,25,30.19,30.10,30.03,10,9,6,6,3,,0.00,0,,249
2013-11-19,62,53,44,34,31,29,58,46,27,30.01,29.90,29.80,10,9,5,7,3,,0.00,0,,273
2013-11-20,53,48,44,40,35,32,77,62,44,29.86,29.84,29.80,10,10,8,7,3,,0.01,5,Rain,180
2013-11-21,55,50,44,44,42,39,86,77,57,30.06,29.91,29.83,10,8,1,8,2,,0.16,7,Rain,11
2013-11-22,48,41,34,43,33,30,89,84,72,30.19,30.12,29.99,10,6,0,16,8,18,0.24,8,Fog-Rain-Snow,42
2013-11-23,39,36,34,36,33,30,92,87,72,30.20,30.16,30.11,10,6,0,12,4,18,0.31,8,Fog-Rain-Snow,275
2013-11-24,43,38,34,36,35,31,89,82,70,30.19,30.14,30.11,10,8,2,7,2,,0.16,7,Rain,130
2013-11-25,50,42,33,35,32,29,85,70,49,30.33,30.23,30.13,10,9,5,6,3,,0.00,0,,200
2013-11-26,50,42,33,35,32,28,85,71,55,30.44,30.38,30.32,10,9,2,6,2,,0.00,1,,19
2013-11-27,48,40,33,34,31,28,82,72,49,30.34,30.25,30.17,10,9,6,6,2,,0.00,1,,183
2013-11-28,45,39,33,34,31,29,85,72,54,30.27,30.21,30.16,10,9,4,8,2,,0.00,6,,109
2013-11-29,43,40,37,33,32,31,73,69,54,30.37,30.32,30.27,10,10,10,7,4,,0.00,8,,106
2013-11-30,41,40,39,31,31,31,73,69,57,30.40,30.36,30.32,10,10,10,6,3,,0.00,8,,71